Hourly Data Report for July 10, 2021

SECHELT AUT
BRITISH COLUMBIA
Current Station Operator: ECCC - MSC

49°27'28.788" N
123°42'54.945" W
86.20 m
1047172
71638
VOU

Download Data

Hourly Data (July 2021)
Hourly Data Report for July 10, 2021
TIME
LST
Temp Definition
°C
Dew Point Definition
°C
Rel Hum Definition
%
Precip. Amount Definition
mm

Wind Dir Definition
10's deg

Wind Spd Definition
km/h
Visibility Definition
km
Stn Press Definition
kPa
Hmdx Definition


Wind Chill Definition


Weather Definition


00:00 16.8 14.2 85 0.0 10 2   100.74     LegendNANA
01:00 16.7 14.0 84 0.0   0   100.78     LegendNANA
02:00 15.9 13.7 87 0.0 36 1   100.84     LegendNANA
03:00 15.5 13.5 88 0.0 33 3   100.90     LegendNANA
04:00 14.7 13.8 95 0.0 5 2   100.92     LegendNANA
05:00 15.0 14.0 93 0.0 0 1   100.98     LegendNANA
06:00 17.3 15.4 88 0.0 12 6   101.01     LegendNANA
07:00 17.7 14.9 84 0.0 15 11   101.08     LegendNANA
08:00 17.5 14.5 83 0.0 15 8   101.10     LegendNANA
09:00 19.7 15.3 76 0.0 15 7   101.11     LegendNANA
10:00 19.5 14.8 74 0.0 15 8   101.14     LegendNANA
11:00 22.5 15.0 63 0.0 16 5   101.15 26   LegendNANA
12:00 23.2 14.4 58 0.0 19 5   101.14 27   LegendNANA
13:00 23.4 15.1 59 0.0 14 10   101.10 27   LegendNANA
14:00 23.6 14.4 57 0.0 14 8   101.07 27   LegendNANA
15:00 24.7 14.3 53 0.0 15 7   101.03 28   LegendNANA
16:00 25.0 14.5 52 0.0 14 7   100.97 29   LegendNANA
17:00 24.9 14.9 54 0.0 15 7   100.91 29   LegendNANA
18:00 22.7 14.4 59 0.0 15 5   100.88 26   LegendNANA
19:00 23.0 14.4 58 0.0 17 3   100.86 27   LegendNANA
20:00 19.8 16.5 81 0.0   0   100.86     LegendNANA
21:00 18.2 14.5 79 0.0 33 2   100.90     LegendNANA
22:00 17.0 13.6 80 0.0 0 1   100.91     LegendNANA
23:00 16.5 13.4 82 0.0 33 2   100.92     LegendNANA

Notes on Data Quality.

Legend

  • E = Estimated
  • M = Missing
  • NA = Not Available*
  • [empty] = Indicates an unobserved value
Date modified: